Regional Weather Roundup
Issued by NWS Charleston, WV

Home | Current Version | Previous Version | Text Only | Print | Product List | Glossary Off
Versions: 1 2 3 4 5 6 7 8 9 10 11 12 13 14 15 16 17 18 19 20 21 22 23 24 25 26 27 28 29 30 31 32 33 34 35 36 37 38 39 40 41 42 43 44 45 46 47 48 49 50

000
ASUS41 KRLX 092110
RWRRLX
West Virginia Regional Weather Roundup
National Weather Service Charleston WV
400 PM EST TUE FEB 09 2016

Note: "fair" indicates few or no clouds below 12,000 feet with no
significant weather and/or obstructions to visibility.

WVZ003-092200-
Northern Panhandle of West Virginia

CITY           SKY/WX    TMP DP  RH WIND       PRES   REMARKS
WHEELING       CLOUDY    26  20  77 SW12      29.62R HAZE
$$

WVZ009-092200-
Northwest West Virginia

CITY           SKY/WX    TMP DP  RH WIND       PRES   REMARKS
PARKERSBURG    LGT SNOW  25  21  85 VRB7      29.74R VSB 1
$$

WVZ006-092200-
Western West Virginia

CITY           SKY/WX    TMP DP  RH WIND       PRES   REMARKS
HUNTINGTON     LGT SNOW  25  18  74 SW13G21   29.78R
$$

WVZ015-092200-
West Central West Virginia

CITY           SKY/WX    TMP DP  RH WIND       PRES   REMARKS
CHARLESTON     LGT SNOW  24  19  81 VRB7      29.75R
$$

WVZ022-031-092200-
North Central West Virginia

CITY           SKY/WX    TMP DP  RH WIND       PRES   REMARKS
CLARKSBURG     LGT SNOW  24  19  81 W9        29.67R
MORGANTOWN     LGT SNOW  25  19  78 SW9       29.65R
$$

WVZ025-035-042-045-092200-
Southern West Virginia

CITY           SKY/WX    TMP DP  RH WIND       PRES   REMARKS
BECKLEY        CLOUDY    19  10  68 W15       29.65R WCI   5
LOGAN          FLURRIES  21  14  73 VRB7G16   29.73R
BLUEFIELD      LGT SNOW  17   9  70 W14G22    29.63R WCI   3
LEWISBURG      CLOUDY    25  16  68 NW8       29.63R
$$

WVZ047-092200-
Northern Mountains of West Virginia

CITY           SKY/WX    TMP DP  RH WIND       PRES   REMARKS
ELKINS         FLURRIES  22  13  68 W9        29.62R
$$

WVZ052-092200-
Eastern Panhandle of West Virginia

CITY           SKY/WX    TMP DP  RH WIND       PRES   REMARKS
MARTINSBURG    CLOUDY    34  25  69 NW12      29.57R
PETERSBURG       N/A     33  17  53 W12G18    29.61R
$$



USA.gov is the U.S. government's official web portal to all federal, state and local government web resources and services.